Overview Statistics Trail Chart Weather Telemetry Raw packets
 

This is the latest recevied weather packets stored in our database for station/object K7SKM. If no packets are shown the sender has not sent any weather packets the latest 10 day(s).

<< 53 54 55 56 57 58 59 >>
Time Temp. Humidity Pressure Rain* Wind** Luminosity Snow
1788314170 19.44° C 64% 1014.7 hPa 0 mm - 39 W/m² -
1788313866 19.44° C 63% 1014.6 hPa 0 mm - 45 W/m² -
1788313562 19.44° C 63% 1014.7 hPa 0 mm - 51 W/m² -
1788313257 19.44° C 64% 1014.7 hPa 0 mm - 49 W/m² -
1788312956 19.44° C 64% 1014.8 hPa 0 mm - 36 W/m² -
1788312652 19.44° C 64% 1014.5 hPa 0 mm - 38 W/m² -
1788312347 19.44° C 64% 1014.6 hPa 0 mm - 29 W/m² -
1788312043 19.44° C 65% 1014.6 hPa 0 mm - 34 W/m² -
1788311738 19.44° C 65% 1014.6 hPa 0 mm - 39 W/m² -
1788311437 19.44° C 66% 1014.7 hPa 0 mm - 35 W/m² -
1788311137 19.44° C 65% 1014.6 hPa 0 mm - 42 W/m² -
1788310833 19.44° C 65% 1014.6 hPa 0 mm - 43 W/m² -
1788310531 19.44° C 65% 1014.6 hPa 0 mm - 33 W/m² -
1788310227 19.44° C 65% 1014.5 hPa 0 mm - 44 W/m² -
1788309926 20° C 64% 1014.7 hPa 0 mm - 63 W/m² -
1788309622 20° C 64% 1014.7 hPa 0 mm - 102 W/m² -
1788309317 20° C 64% 1014.4 hPa 0 mm - 56 W/m² -
1788309038 19.44° C 64% 1014.6 hPa 0 mm - 71 W/m² -
1788308708 20° C 63% 1014.7 hPa 0 mm - 95 W/m² -
1788308402 20° C 63% 1014.6 hPa 0 mm - 89 W/m² -
1788308096 20° C 64% 1014.7 hPa 0 mm - 83 W/m² -
1788307792 19.44° C 65% 1014.8 hPa 0 mm - 80 W/m² -
1788307487 19.44° C 66% 1014.6 hPa 0 mm - 61 W/m² -
1788307182 19.44° C 66% 1014.8 hPa 0 mm - 85 W/m² -
1788306877 20° C 65% 1014.6 hPa 0 mm - 89 W/m² -

* Rain latest hour (hover to see other rain measurements)
** Current wind speed in m/s (hover to see current wind gust speed)